Back to catalog

CZ-6A DEB

AlivePO
NORAD 61171·DEBRIS·🇨🇳 China

Launched Aug 6, 2024 from Taiyuan Satellite Launch Center

Loading…

Next Passes (next 24 hours)

TLE

FreshSource: Space-Track

Epoch: Sep 13, 2026, 23:22 UTC

1 61171U 24140RR  26256.97426261  .00004980  00000-0  11486-2 0  9998
2 61171  88.9903 259.9690 0070622   9.1392 351.1083 14.53639925109059

Track CZ-6A DEB in real time with AllMySat

Download on the App Store